Regional Weather Roundup
Issued by NWS Wilmington, NC

Home | Current Version | Previous Version | Text Only | Print | Product List | Glossary On
Versions: 1 2 3 4 5 6 7 8 9 10 11 12 13 14 15 16 17 18 19 20 21 22 23 24 25 26 27
000
ASUS42 KILM 220113
RWRILM
RWRILM
REGIONAL HOURLY WEATHER ROUNDUP
NATIONAL WEATHER SERVICE WILMINGTON NC
900 PM EDT THU SEP 21 2017

NOTE: "FAIR" INDICATES FEW OR NO CLOUDS BELOW 12,000 FEET WITH NO
SIGNIFICANT WEATHER AND/OR OBSTRUCTIONS TO VISIBILITY.

...............WFO WILMINGTON COUNTY WARNING AREA...............

......COASTAL NC AND SC COUNTIES......

CITY           SKY/WX    TMP DP  RH WIND       PRES   REMARKS
WILMINGTON     MOCLDY    71  68  90 S3        30.02R
N MYRTLE BEACH CLOUDY    76  68  76 E6        30.02S
MYRTLE BEACH   LGT RAIN  75  68  78 E12       30.03S

......INLAND NC AND SC COUNTIES.......

CITY           SKY/WX    TMP DP  RH WIND       PRES   REMARKS
LUMBERTON      MOCLDY    70  69  97 CALM      30.02S
ELIZABETHTOWN  NOT AVBL
WHITEVILLE     CLOUDY    70  67  93 CALM      30.02R
FLORENCE       PTCLDY    75  68  78 SE9       30.03R
DARLINGTON     MOCLDY    76  68  76 E10       30.03R
KINGSTREE      FAIR      70  64  83 CALM      30.01S
HARTSVILLE     MOCLDY    73  70  88 SE5       30.03R
BENNETTSVILLE  CLOUDY    77  68  73 E7G17     30.03R
CONWAY         FAIR      68  68 100 CALM      30.03F FOG
GEORGETOWN     LGT RAIN  70  68  94 CALM      30.02S
MARION         FAIR      72  63  73 S3        30.02F HAZE

....................REST OF NORTH CAROLINA......................

.........EASTERN NC.........

CITY           SKY/WX    TMP DP  RH WIND       PRES   REMARKS
CAPE HATTERAS  PTCLDY    71  68  90 CALM      30.02R
JACKSONVILLE   CLOUDY    69  68  96 CALM      30.03R FOG
MOREHEAD CITY  MOCLDY    73  69  87 CALM      30.02R
KENANSVILLE    PTCLDY    68  66  94 CALM      30.03R
NEW BERN       CLEAR     69  68  96 CALM      30.03R
ELIZABETH CITY CLEAR     73  68  84 E7        30.03R

.........CENTRAL NC.........

CITY           SKY/WX    TMP DP  RH WIND       PRES   REMARKS
RALEIGH DURHAM PTCLDY    68  65  90 CALM      30.04R
ROCKY MOUNT    FOG       70  70 100 CALM      30.03R VSB 1/2
ROANOKE RAPIDS NOT AVBL
FAYETTEVILLE   CLEAR     72  68  87 CALM      30.03R
HOFFMAN        PTCLDY    74  65  73 SE8       30.04R

.........WESTERN NC.........

CITY           SKY/WX    TMP DP  RH WIND       PRES   REMARKS
CHARLOTTE      PTCLDY    79  66  64 NE6       30.04R
GREENSBORO     PTCLDY    77  68  73 E3        30.05R
HICKORY        NOT AVBL
BOONE          NOT AVBL
ASHEVILLE      NOT AVBL

.....................REST OF SOUTH CAROLINA.....................

.........EASTERN SC.........

CITY           SKY/WX    TMP DP  RH WIND       PRES   REMARKS
CHARLESTON     CLOUDY    76  66  71 NE6       30.02F
BEAUFORT MCAS  LGT RAIN  77  72  84 CALM      30.02R
HILTON HEAD    CLEAR     79  75  89 N5        30.03R

.........CENTRAL SC.........

CITY           SKY/WX    TMP DP  RH WIND       PRES   REMARKS
COLUMBIA       PTCLDY    81  68  64 SE6       30.01R
ORANGEBURG     PTCLDY    75  63  66 CALM      30.02R
SUMTER SHAW    PTCLDY    75  65  71 S5        30.00R

.........WESTERN SC.........

CITY           SKY/WX    TMP DP  RH WIND       PRES   REMARKS
GREENVILLE     NOT AVBL
ROCK HILL        N/A    N/A N/A N/A MISG      30.04R
ANDERSON       PTCLDY    72  68  87 CALM      30.03R
CLEMSON        NOT AVBL
GREENWOOD      CLEAR     73  69  87 CALM      30.04R


...................COASTAL AND OFFSHORE REPORTS..................

................LOCAL PIERS AND NC RESERVE................


STATION/POSITION TIME  SKY/WX   TEMP    WIND        PRES    VSBY
                                AIR SEA DIR/SP/G
                 (UTC)          (F)     (DEG/KT/KT) (MB)    (MI)
JOHNY MRCER PIER 0048            71 81  360/  3/  5 1015.9R
NC RESRV MASNBRO 2345            70     250/  4     1015.0
OCEAN CREST PIER NOT AVBL
SPRINGMAID  PIER 0042                               1016.1R


................COASTAL AND OFFSHORE BUOYS................


STATION/POSITION TIME  SKY/WX   TEMP    WIND        PRES    VSBY
                                AIR SEA DIR/SP/G
                 (UTC)          (F)     (DEG/KT/KT) (MB)    (MI)
DIMNDSHOAL 41025 0050            76 76   50/  8/ 10 1016.3R
WVE H/P(F/S)=  5/11 SWL H/P/D(F/S/D)=  5/ 90/11

CAPE LOOKOUT     0100            78     360/  5/  5 1016.2R
ONSLOW BAY 41036 NOT AVBL
ONSLOW BAY 41064 0008            77     330/  8/ 12 1015.3F
ONSLOW BAY 41159 NOT AVBL
MASNBO INL 41110 0059               78                N/A
WVE H/P(F/S)=  2/12 SWL H/P/D(F/S/D)=  2/130/12

WILM HARBR 41108 0100               80                N/A
WVE H/P(F/S)=  3/11 SWL H/P/D(F/S/D)=  2/130/11

27SE WRITB 41037 0008            77 80   10/  2/  8 1015.3F
FRYING PAN 41013 0050            80 82   50/  4/  8 1016.0R
WVE H/P(F/S)=  3/11 SWL H/P/D(F/S/D)=  3/120/11

SUNST NRSH 41024 0008            74 80  120/ 12/ 17 1015.7S
CAPRS NRSH 41029 NOT AVBL
EDISTO     41004 0050            81 83   CALM  /  2 1016.0R
WVE H/P(F/S)=  2/11 SWL H/P/D(F/S/D)=  2/110/11



..........OFFSHORE BUOYS BEYOND 100 NM OFFSHORE...........
.....IN A TRIANGLE---HAT TO BERMUDA TO BAHAMAS TO HAT.....


STATION/POSITION TIME  SKY/WX   TEMP    WIND        PRES    VSBY
                                AIR SEA DIR/SP/G
                 (UTC)          (F)     (DEG/KT/KT) (MB)    (MI)
150E HAT   41001 NOT AVBL
W BERMUDA  41048 0050            79 80  270/  2/  4 1016.3R
WVE H/P(F/S)=  7/11 SWL H/P/D(F/S/D)=  7/100/11

ATLANTIC S 41049 0050            82 83  120/ 12/ 14 1017.4R
WVE H/P(F/S)=  7/11 SWL H/P/D(F/S/D)=  7/340/11

E BAHAMAS  41046 0050            84 84   90/ 21/ 29 1010.8R
WVE H/P(F/S)= 17/13 SWL H/P/D(F/S/D)= 13/190/13

NE BAHAMAS 41047 0050            82 84  100/ 12/ 16 1014.5R
WVE H/P(F/S)= 10/11 SWL H/P/D(F/S/D)= 10/ 20/11

120E CANVRL41010 0050                    70/ 12/ 16 1014.9R
WVE H/P(F/S)=  5/11 SWL H/P/D(F/S/D)=  3/11


END




USA.gov is the U.S. government's official web portal to all federal, state and local government web resources and services.